Time,TemperatureF,DewpointF,PressureIn,WindDirection,WindDirectionDegrees,WindSpeedMPH,WindSpeedGustMPH,Humidity,HourlyPrecipIn,Conditions,Clouds,dailyrainin,SolarRadiationWatts/m^2,SoftwareType,DateUTC
2013-04-17 00:02:00,31.5,26.9,30.31,West,269,0.0,0.0,83,0.00,,CLR,0.00,0.00,VWS V14.01,2013-04-17 05:02:00,
2013-04-17 00:07:00,31.4,26.8,30.31,West,269,0.0,0.0,83,0.00,,CLR,0.00,0.00,VWS V14.01,2013-04-17 05:07:00,
2013-04-17 00:12:00,31.2,26.6,30.31,West,269,0.0,0.0,83,0.00,,CLR,0.00,0.00,VWS V14.01,2013-04-17 05:12:00,
2013-04-17 00:17:00,31.1,26.8,30.31,West,269,0.0,0.0,84,0.00,,CLR,0.00,0.00,VWS V14.01,2013-04-17 05:17:00,
2013-04-17 00:22:00,30.9,26.6,30.31,West,269,0.0,1.0,84,0.00,,CLR,0.00,0.00,VWS V14.01,2013-04-17 05:22:00,
2013-04-17 00:27:00,30.6,26.4,30.31,West,269,0.0,1.0,84,0.00,,CLR,0.00,0.00,VWS V14.01,2013-04-17 05:27:00,
2013-04-17 00:32:00,30.4,26.4,30.31,West,269,0.0,0.0,85,0.00,,CLR,0.00,0.00,VWS V14.01,2013-04-17 05:32:00,
2013-04-17 00:37:00,30.4,26.4,30.31,West,269,0.0,1.0,85,0.00,,CLR,0.00,0.00,VWS V14.01,2013-04-17 05:37:00,
2013-04-17 00:42:00,30.8,26.8,30.31,West,269,0.0,1.0,85,0.00,,CLR,0.00,0.00,VWS V14.01,2013-04-17 05:42:00,
2013-04-17 00:47:00,30.8,26.8,30.31,West,269,0.0,1.0,85,0.00,,CLR,0.00,0.00,VWS V14.01,2013-04-17 05:47:00,
2013-04-17 00:52:00,30.7,26.7,30.31,West,269,0.0,1.0,85,0.00,,CLR,0.00,0.00,VWS V14.01,2013-04-17 05:52:00,
2013-04-17 00:57:00,30.6,26.6,30.31,West,269,0.0,1.0,85,0.00,,CLR,0.00,0.00,VWS V14.01,2013-04-17 05:57:00,
2013-04-17 01:02:00,31.0,27.3,30.31,West,269,2.0,2.0,86,0.00,,CLR,0.00,0.00,VWS V14.01,2013-04-17 06:02:00,
2013-04-17 01:07:00,31.7,27.4,30.31,West,269,1.0,2.0,84,0.00,,CLR,0.00,0.00,VWS V14.01,2013-04-17 06:07:00,
2013-04-17 01:12:00,32.3,27.4,30.31,West,270,2.0,2.0,82,0.00,,CLR,0.00,0.00,VWS V14.01,2013-04-17 06:12:00,
2013-04-17 01:17:00,32.8,27.6,30.31,West,270,1.0,2.0,81,0.00,,CLR,0.00,0.00,VWS V14.01,2013-04-17 06:17:00,
2013-04-17 01:22:00,32.9,27.7,30.31,West,270,2.0,3.0,81,0.00,,CLR,0.00,0.00,VWS V14.01,2013-04-17 06:22:00,
2013-04-17 01:27:00,33.0,27.5,30.31,West,270,1.0,3.0,80,0.00,,CLR,0.00,0.00,VWS V14.01,2013-04-17 06:27:00,
2013-04-17 01:32:00,33.0,27.5,30.31,West,270,2.0,2.0,80,0.00,,CLR,0.00,0.00,VWS V14.01,2013-04-17 06:32:00,
2013-04-17 01:37:00,33.0,27.5,30.31,West,270,2.0,2.0,80,0.00,,CLR,0.00,0.00,VWS V14.01,2013-04-17 06:37:00,
2013-04-17 01:42:00,32.9,27.4,30.31,West,270,1.0,2.0,80,0.00,,CLR,0.00,0.00,VWS V14.01,2013-04-17 06:42:00,
2013-04-17 01:47:00,32.8,27.3,30.31,West,270,0.0,2.0,80,0.00,,CLR,0.00,0.00,VWS V14.01,2013-04-17 06:47:00,
2013-04-17 01:52:00,32.8,27.3,30.31,West,270,1.0,2.0,80,0.00,,CLR,0.00,0.00,VWS V14.01,2013-04-17 06:52:00,
2013-04-17 01:57:00,32.8,27.6,30.31,West,270,0.0,2.0,81,0.00,,CLR,0.00,0.00,VWS V14.01,2013-04-17 06:57:00,
2013-04-17 02:02:00,32.8,27.3,30.31,West,270,0.0,1.0,80,0.00,,CLR,0.00,0.00,VWS V14.01,2013-04-17 07:02:00,
2013-04-17 02:07:00,32.8,27.3,30.32,West,270,0.0,1.0,80,0.00,,CLR,0.00,0.00,VWS V14.01,2013-04-17 07:07:00,
2013-04-17 02:12:00,32.7,27.2,30.32,West,270,0.0,1.0,80,0.00,,CLR,0.00,0.00,VWS V14.01,2013-04-17 07:12:00,
2013-04-17 02:17:00,32.7,27.2,30.32,West,270,0.0,1.0,80,0.00,,CLR,0.00,0.00,VWS V14.01,2013-04-17 07:17:00,
2013-04-17 02:22:00,32.6,27.4,30.32,West,270,0.0,1.0,81,0.00,,CLR,0.00,0.00,VWS V14.01,2013-04-17 07:22:00,
2013-04-17 02:27:00,32.6,27.1,30.32,West,270,0.0,1.0,80,0.00,,CLR,0.00,0.00,VWS V14.01,2013-04-17 07:27:00,
2013-04-17 02:32:00,32.6,27.1,30.32,West,270,0.0,0.0,80,0.00,,CLR,0.00,0.00,VWS V14.01,2013-04-17 07:32:00,
2013-04-17 02:37:00,32.5,27.3,30.32,West,270,0.0,1.0,81,0.00,,CLR,0.00,0.00,VWS V14.01,2013-04-17 07:37:00,
2013-04-17 02:42:00,32.5,27.3,30.33,West,270,0.0,1.0,81,0.00,,CLR,0.00,0.00,VWS V14.01,2013-04-17 07:42:00,
2013-04-17 02:47:00,32.4,27.2,30.32,West,270,0.0,1.0,81,0.00,,CLR,0.00,0.00,VWS V14.01,2013-04-17 07:47:00,
2013-04-17 02:52:00,32.4,27.2,30.33,West,270,0.0,1.0,81,0.00,,CLR,0.00,0.00,VWS V14.01,2013-04-17 07:52:00,
2013-04-17 02:57:00,32.4,26.9,30.32,West,270,0.0,1.0,80,0.00,,CLR,0.00,0.00,VWS V14.01,2013-04-17 07:57:00,
2013-04-17 03:02:00,32.4,27.2,30.32,West,270,1.0,1.0,81,0.00,,CLR,0.00,0.00,VWS V14.01,2013-04-17 08:02:00,
2013-04-17 03:07:00,32.3,27.1,30.31,West,270,1.0,1.0,81,0.00,,CLR,0.00,0.00,VWS V14.01,2013-04-17 08:07:00,
2013-04-17 03:12:00,32.3,27.1,30.32,West,270,1.0,1.0,81,0.00,,CLR,0.00,0.00,VWS V14.01,2013-04-17 08:12:00,
2013-04-17 03:17:00,32.3,27.1,30.32,West,270,0.0,1.0,81,0.00,,CLR,0.00,0.00,VWS V14.01,2013-04-17 08:17:00,
2013-04-17 03:22:00,32.1,26.9,30.32,West,270,1.0,1.0,81,0.00,,CLR,0.00,0.00,VWS V14.01,2013-04-17 08:22:00,
2013-04-17 03:27:00,32.1,26.9,30.32,West,270,0.0,1.0,81,0.00,,CLR,0.00,0.00,VWS V14.01,2013-04-17 08:27:00,
2013-04-17 03:32:00,32.1,26.9,30.32,West,270,1.0,1.0,81,0.00,,CLR,0.00,0.00,VWS V14.01,2013-04-17 08:32:00,
2013-04-17 03:37:00,32.0,27.1,30.32,West,270,0.0,2.0,82,0.00,,CLR,0.00,0.00,VWS V14.01,2013-04-17 08:37:00,
2013-04-17 03:42:00,31.9,27.0,30.32,West,270,0.0,2.0,82,0.00,,CLR,0.00,0.00,VWS V14.01,2013-04-17 08:42:00,
2013-04-17 03:47:00,32.0,27.1,30.32,West,270,0.0,2.0,82,0.00,,CLR,0.00,0.00,VWS V14.01,2013-04-17 08:47:00,
2013-04-17 03:52:00,31.9,27.0,30.32,West,270,0.0,2.0,82,0.00,,CLR,0.00,0.00,VWS V14.01,2013-04-17 08:52:00,
2013-04-17 03:57:00,31.9,27.0,30.32,West,270,0.0,2.0,82,0.00,,CLR,0.00,0.00,VWS V14.01,2013-04-17 08:57:00,
2013-04-17 04:02:00,32.0,27.1,30.33,West,270,1.0,2.0,82,0.00,,CLR,0.00,0.00,VWS V14.01,2013-04-17 09:02:00,
2013-04-17 04:07:00,31.9,27.0,30.33,West,270,0.0,2.0,82,0.00,,CLR,0.00,0.00,VWS V14.01,2013-04-17 09:07:00,
2013-04-17 04:12:00,31.9,27.0,30.33,West,270,0.0,2.0,82,0.00,,CLR,0.00,0.00,VWS V14.01,2013-04-17 09:12:00,
2013-04-17 04:17:00,31.9,27.0,30.33,West,270,0.0,2.0,82,0.00,,CLR,0.00,0.00,VWS V14.01,2013-04-17 09:17:00,
2013-04-17 04:22:00,31.9,27.0,30.33,West,270,0.0,2.0,82,0.00,,CLR,0.00,0.00,VWS V14.01,2013-04-17 09:22:00,
2013-04-17 04:27:00,31.9,27.0,30.33,West,270,0.0,2.0,82,0.00,,CLR,0.00,0.00,VWS V14.01,2013-04-17 09:27:00,
2013-04-17 04:32:00,31.9,27.0,30.33,West,270,1.0,1.0,82,0.00,,CLR,0.00,0.00,VWS V14.01,2013-04-17 09:32:00,
2013-04-17 04:37:00,31.9,27.0,30.33,West,270,1.0,2.0,82,0.00,,CLR,0.00,0.00,VWS V14.01,2013-04-17 09:37:00,
2013-04-17 04:42:00,31.9,27.0,30.32,West,270,1.0,2.0,82,0.00,,CLR,0.00,0.00,VWS V14.01,2013-04-17 09:42:00,
2013-04-17 04:47:00,31.9,27.0,30.32,West,270,1.0,2.0,82,0.00,,CLR,0.00,0.00,VWS V14.01,2013-04-17 09:47:00,
2013-04-17 04:52:00,31.9,27.0,30.32,West,270,0.0,2.0,82,0.00,,CLR,0.00,0.00,VWS V14.01,2013-04-17 09:52:00,
2013-04-17 04:57:00,31.8,26.9,30.32,West,270,0.0,2.0,82,0.00,,CLR,0.00,0.00,VWS V14.01,2013-04-17 09:57:00,
2013-04-17 05:02:00,31.7,26.8,30.31,West,270,0.0,2.0,82,0.00,,FEW110,0.00,0.00,VWS V14.01,2013-04-17 10:02:00,
2013-04-17 05:07:00,31.7,26.8,30.30,West,270,1.0,2.0,82,0.00,,FEW110,0.00,0.00,VWS V14.01,2013-04-17 10:07:00,
2013-04-17 05:12:00,31.7,26.8,30.31,West,270,0.0,2.0,82,0.00,,FEW110,0.00,0.00,VWS V14.01,2013-04-17 10:12:00,
2013-04-17 05:17:00,31.6,26.8,30.30,West,270,0.0,2.0,82,0.00,,FEW110,0.00,0.00,VWS V14.01,2013-04-17 10:17:00,
2013-04-17 05:22:00,31.6,26.8,30.30,West,270,2.0,2.0,82,0.00,,FEW110,0.00,0.00,VWS V14.01,2013-04-17 10:22:00,
2013-04-17 05:27:00,31.6,27.0,30.29,NNE,22,0.0,3.0,83,0.00,,FEW110,0.00,0.00,VWS V14.01,2013-04-17 10:27:00,
2013-04-17 05:32:00,31.5,26.9,30.29,NNE,22,1.0,2.0,83,0.00,,FEW110,0.00,0.00,VWS V14.01,2013-04-17 10:32:00,
2013-04-17 05:37:00,31.4,26.8,30.29,NNE,22,1.0,2.0,83,0.00,,FEW110,0.00,0.00,VWS V14.01,2013-04-17 10:37:00,
2013-04-17 05:42:00,31.4,26.8,30.28,NNE,22,0.0,2.0,83,0.00,,FEW110,0.00,0.00,VWS V14.01,2013-04-17 10:42:00,
2013-04-17 05:47:00,31.3,26.8,30.28,NNE,22,0.0,2.0,83,0.00,,FEW110,0.00,0.00,VWS V14.01,2013-04-17 10:47:00,
2013-04-17 05:52:00,31.2,26.6,30.28,NNE,22,1.0,2.0,83,0.00,,FEW110,0.00,0.00,VWS V14.01,2013-04-17 10:52:00,
2013-04-17 05:57:00,31.2,26.6,30.28,NNE,22,1.0,2.0,83,0.00,,FEW110,0.00,0.00,VWS V14.01,2013-04-17 10:57:00,
2013-04-17 06:02:00,31.1,26.8,30.27,NNE,22,1.0,1.0,84,0.00,,BKN110,0.00,0.00,VWS V14.01,2013-04-17 11:02:00,
2013-04-17 06:07:00,31.1,26.8,30.27,NNE,22,1.0,2.0,84,0.00,,BKN110,0.00,0.00,VWS V14.01,2013-04-17 11:07:00,
2013-04-17 06:12:00,31.0,26.7,30.27,NNE,22,2.0,2.0,84,0.00,,BKN110,0.00,0.00,VWS V14.01,2013-04-17 11:12:00,
2013-04-17 06:17:00,31.0,26.7,30.27,NNE,22,0.0,2.0,84,0.00,,BKN110,0.00,0.00,VWS V14.01,2013-04-17 11:17:00,
2013-04-17 06:22:00,31.1,26.8,30.27,NNE,24,1.0,2.0,84,0.00,,BKN110,0.00,0.00,VWS V14.01,2013-04-17 11:22:00,
2013-04-17 06:27:00,31.2,26.9,30.27,NNE,24,0.0,2.0,84,0.00,,BKN110,0.00,5.00,VWS V14.01,2013-04-17 11:27:00,
2013-04-17 06:32:00,31.3,27.0,30.28,NNE,30,2.0,2.0,84,0.00,,BKN110,0.00,9.00,VWS V14.01,2013-04-17 11:32:00,
2013-04-17 06:37:00,31.4,27.1,30.27,NNE,30,0.0,2.0,84,0.00,,BKN110,0.00,14.00,VWS V14.01,2013-04-17 11:37:00,
2013-04-17 06:42:00,31.6,27.3,30.27,NNE,30,0.0,2.0,84,0.00,,BKN110,0.00,18.00,VWS V14.01,2013-04-17 11:42:00,
2013-04-17 06:47:00,31.7,27.4,30.27,NNE,30,0.0,2.0,84,0.00,,BKN110,0.00,21.00,VWS V14.01,2013-04-17 11:47:00,
2013-04-17 06:52:00,31.9,27.6,30.28,NNE,30,0.0,2.0,84,0.00,,BKN110,0.00,26.00,VWS V14.01,2013-04-17 11:52:00,
2013-04-17 06:57:00,32.1,27.5,30.28,NNE,30,1.0,2.0,83,0.00,,BKN110,0.00,26.00,VWS V14.01,2013-04-17 11:57:00,
2013-04-17 07:02:00,32.3,27.7,30.28,ENE,74,0.0,3.0,83,0.00,,OVC110,0.00,28.00,VWS V14.01,2013-04-17 12:02:00,
2013-04-17 07:07:00,32.6,28.0,30.28,ENE,74,2.0,3.0,83,0.00,,OVC110,0.00,32.00,VWS V14.01,2013-04-17 12:07:00,
2013-04-17 07:12:00,32.8,28.2,30.27,ENE,76,2.0,4.0,83,0.00,,OVC110,0.00,37.00,VWS V14.01,2013-04-17 12:12:00,
2013-04-17 07:17:00,33.1,28.2,30.28,ENE,78,0.0,4.0,82,0.00,,OVC110,0.00,46.00,VWS V14.01,2013-04-17 12:17:00,
2013-04-17 07:23:00,33.3,28.1,30.28,East,97,1.0,4.0,81,0.00,,OVC110,0.00,56.00,VWS V14.01,2013-04-17 12:23:00,
2013-04-17 07:28:00,33.5,28.3,30.28,NE,42,1.0,4.0,81,0.00,,OVC110,0.00,63.00,VWS V14.01,2013-04-17 12:28:00,
2013-04-17 07:33:00,33.7,28.5,30.29,NE,42,0.0,2.0,81,0.00,,OVC110,0.00,63.00,VWS V14.01,2013-04-17 12:33:00,
2013-04-17 07:38:00,33.9,28.4,30.31,East,88,0.0,2.0,80,0.00,,OVC110,0.00,69.00,VWS V14.01,2013-04-17 12:38:00,
2013-04-17 07:43:00,34.1,28.3,30.32,East,88,0.0,2.0,79,0.00,,OVC110,0.00,88.00,VWS V14.01,2013-04-17 12:43:00,
2013-04-17 07:48:00,34.4,28.6,30.33,East,88,0.0,2.0,79,0.00,,OVC110,0.00,79.00,VWS V14.01,2013-04-17 12:48:00,
2013-04-17 07:53:00,34.6,28.8,30.32,East,88,1.0,2.0,79,0.00,,OVC110,0.00,93.00,VWS V14.01,2013-04-17 12:53:00,
2013-04-17 07:58:00,34.8,29.0,30.32,East,88,0.0,2.0,79,0.00,,OVC110,0.00,74.00,VWS V14.01,2013-04-17 12:58:00,
2013-04-17 08:03:00,34.8,28.6,30.32,ESE,112,4.0,7.0,78,0.00,,BKN110,0.00,69.00,VWS V14.01,2013-04-17 13:03:00,
2013-04-17 08:08:00,35.0,28.9,30.32,East,97,2.0,7.0,78,0.00,,BKN110,0.00,77.00,VWS V14.01,2013-04-17 13:08:00,
2013-04-17 08:13:00,35.1,28.9,30.32,East,88,5.0,7.0,78,0.00,,BKN110,0.00,79.00,VWS V14.01,2013-04-17 13:13:00,
2013-04-17 08:18:00,35.2,28.7,30.33,ESE,110,4.0,8.0,77,0.00,,BKN110,0.00,102.00,VWS V14.01,2013-04-17 13:18:00,
2013-04-17 08:23:00,35.3,28.8,30.33,East,92,5.0,8.0,77,0.00,,BKN110,0.00,118.00,VWS V14.01,2013-04-17 13:23:00,
2013-04-17 08:28:00,35.3,28.8,30.33,ENE,73,2.0,8.0,77,0.00,,BKN110,0.00,109.00,VWS V14.01,2013-04-17 13:28:00,
2013-04-17 08:33:00,35.4,29.2,30.33,SE,135,1.0,4.0,78,0.00,,BKN110,0.00,120.00,VWS V14.01,2013-04-17 13:33:00,
2013-04-17 08:38:00,35.5,29.0,30.33,ESE,109,3.0,5.0,77,0.00,,BKN110,0.00,116.00,VWS V14.01,2013-04-17 13:38:00,
2013-04-17 08:43:00,35.5,29.0,30.32,SSE,153,6.0,9.0,77,0.00,,BKN110,0.00,127.00,VWS V14.01,2013-04-17 13:43:00,
2013-04-17 08:48:00,35.5,29.3,30.33,ESE,122,4.0,9.0,78,0.00,,BKN110,0.00,142.00,VWS V14.01,2013-04-17 13:48:00,
2013-04-17 08:53:00,35.6,29.1,30.32,ENE,69,3.0,9.0,77,0.00,,BKN110,0.00,121.00,VWS V14.01,2013-04-17 13:53:00,
2013-04-17 08:58:00,35.6,29.1,30.32,ESE,111,2.0,9.0,77,0.00,,BKN110,0.00,109.00,VWS V14.01,2013-04-17 13:58:00,
2013-04-17 09:03:00,35.6,29.4,30.32,East,89,2.0,5.0,78,0.00,,OVC085,0.00,102.00,VWS V14.01,2013-04-17 14:03:00,
2013-04-17 09:08:00,35.6,29.4,30.32,East,86,2.0,7.0,78,0.00,,OVC085,0.00,97.00,VWS V14.01,2013-04-17 14:08:00,
2013-04-17 09:13:00,35.6,29.4,30.31,ESE,113,5.0,9.0,78,0.00,,OVC085,0.00,107.00,VWS V14.01,2013-04-17 14:13:00,
2013-04-17 09:18:00,35.6,29.4,30.30,East,80,1.0,9.0,78,0.00,,OVC085,0.00,88.00,VWS V14.01,2013-04-17 14:18:00,
2013-04-17 09:23:00,35.6,29.7,30.29,East,86,3.0,9.0,79,0.00,,OVC085,0.00,81.00,VWS V14.01,2013-04-17 14:23:00,
2013-04-17 09:28:00,35.6,29.7,30.27,ENE,76,3.0,9.0,79,0.00,,OVC085,0.00,88.00,VWS V14.01,2013-04-17 14:28:00,
2013-04-17 09:33:00,35.6,29.7,30.26,East,90,1.0,5.0,79,0.00,,OVC085,0.00,120.00,VWS V14.01,2013-04-17 14:33:00,
2013-04-17 09:38:00,35.7,29.8,30.25,ENE,71,1.0,6.0,79,0.00,,OVC085,0.00,169.00,VWS V14.01,2013-04-17 14:38:00,
2013-04-17 09:43:00,35.9,30.0,30.25,ESE,123,2.0,6.0,79,0.00,,OVC085,0.00,209.00,VWS V14.01,2013-04-17 14:43:00,
2013-04-17 09:48:00,36.2,30.0,30.25,ENE,78,3.0,6.0,78,0.00,,OVC085,0.00,237.00,VWS V14.01,2013-04-17 14:48:00,
2013-04-17 09:53:00,36.5,30.0,30.26,ENE,65,3.0,6.0,77,0.00,,OVC085,0.00,255.00,VWS V14.01,2013-04-17 14:53:00,
2013-04-17 09:58:00,36.6,30.1,30.26,ENE,76,4.0,6.0,77,0.00,,OVC085,0.00,183.00,VWS V14.01,2013-04-17 14:58:00,
2013-04-17 10:03:00,36.7,29.9,30.26,ENE,71,1.0,7.0,76,0.00,,OVC090,0.00,163.00,VWS V14.01,2013-04-17 15:03:00,
2013-04-17 10:08:00,36.9,30.4,30.26,East,80,3.0,7.0,77,0.00,,OVC090,0.00,188.00,VWS V14.01,2013-04-17 15:08:00,
2013-04-17 10:13:00,37.0,30.5,30.25,ENE,72,4.0,7.0,77,0.00,,OVC090,0.00,179.00,VWS V14.01,2013-04-17 15:13:00,
2013-04-17 10:18:00,37.1,30.2,30.25,ENE,72,3.0,7.0,76,0.00,,OVC090,0.00,181.00,VWS V14.01,2013-04-17 15:18:00,
2013-04-17 10:23:00,37.3,30.4,30.24,ENE,77,2.0,7.0,76,0.00,,OVC090,0.00,174.00,VWS V14.01,2013-04-17 15:23:00,
2013-04-17 10:28:00,37.3,30.1,30.24,ENE,76,2.0,7.0,75,0.00,,OVC090,0.00,137.00,VWS V14.01,2013-04-17 15:28:00,
2013-04-17 10:33:00,37.5,31.0,30.24,ENE,76,2.0,4.0,77,0.00,,OVC090,0.00,105.00,VWS V14.01,2013-04-17 15:33:00,
2013-04-17 10:38:00,37.5,30.3,30.24,ENE,76,2.0,4.0,75,0.00,,OVC090,0.00,90.00,VWS V14.01,2013-04-17 15:38:00,
2013-04-17 10:43:00,37.4,30.2,30.24,ENE,77,1.0,4.0,75,0.00,,OVC090,0.00,104.00,VWS V14.01,2013-04-17 15:43:00,
2013-04-17 10:48:00,37.5,30.6,30.23,NE,55,0.0,4.0,76,0.00,,OVC090,0.00,125.00,VWS V14.01,2013-04-17 15:48:00,
2013-04-17 10:53:00,37.6,30.7,30.24,NE,55,0.0,4.0,76,0.00,,OVC090,0.00,113.00,VWS V14.01,2013-04-17 15:53:00,
2013-04-17 10:58:00,37.7,30.8,30.23,NE,55,0.0,4.0,76,0.00,,OVC090,0.00,111.00,VWS V14.01,2013-04-17 15:58:00,
2013-04-17 11:03:00,37.8,30.9,30.23,NE,56,1.0,1.0,76,0.00,,OVC080,0.00,107.00,VWS V14.01,2013-04-17 16:03:00,
2013-04-17 11:08:00,37.9,30.7,30.23,ENE,60,0.0,4.0,75,0.00,,OVC080,0.00,100.00,VWS V14.01,2013-04-17 16:08:00,
2013-04-17 11:13:00,37.9,30.7,30.23,ENE,60,1.0,4.0,75,0.00,,OVC080,0.00,86.00,VWS V14.01,2013-04-17 16:13:00,
2013-04-17 11:18:00,38.0,30.5,30.24,ENE,60,0.0,4.0,74,0.00,,OVC080,0.00,72.00,VWS V14.01,2013-04-17 16:18:00,
2013-04-17 11:23:00,38.0,31.1,30.25,ENE,59,0.0,4.0,76,0.00,,OVC080,0.00,60.00,VWS V14.01,2013-04-17 16:23:00,
2013-04-17 11:28:00,38.0,30.8,30.26,ENE,60,1.0,4.0,75,0.00,,OVC080,0.00,53.00,VWS V14.01,2013-04-17 16:28:00,
2013-04-17 11:33:00,38.0,30.8,30.27,ENE,60,0.0,1.0,75,0.00,,OVC080,0.00,54.00,VWS V14.01,2013-04-17 16:33:00,
2013-04-17 11:38:00,38.1,30.9,30.28,ENE,60,0.0,1.0,75,0.00,,OVC080,0.00,90.00,VWS V14.01,2013-04-17 16:38:00,
2013-04-17 11:43:00,38.3,30.8,30.28,ENE,60,1.0,1.0,74,0.00,,OVC080,0.00,134.00,VWS V14.01,2013-04-17 16:43:00,
2013-04-17 11:48:00,38.6,31.0,30.28,ENE,61,1.0,1.0,74,0.00,,OVC080,0.00,178.00,VWS V14.01,2013-04-17 16:48:00,
2013-04-17 11:53:00,38.9,31.0,30.28,ENE,63,2.0,2.0,73,0.00,,OVC080,0.00,193.00,VWS V14.01,2013-04-17 16:53:00,
2013-04-17 11:58:00,39.1,31.2,30.27,ESE,118,2.0,4.0,73,0.00,,OVC080,0.00,216.00,VWS V14.01,2013-04-17 16:58:00,
2013-04-17 12:03:00,39.3,30.7,30.26,ESE,107,0.0,2.0,71,0.00,,-RA,0.00,225.00,VWS V14.01,2013-04-17 17:03:00,
2013-04-17 12:08:00,39.4,31.1,30.26,ENE,76,2.0,3.0,72,0.00,,-RA,0.00,257.00,VWS V14.01,2013-04-17 17:08:00,
2013-04-17 12:13:00,39.5,31.2,30.25,ESE,114,0.0,3.0,72,0.00,,-RA,0.00,241.00,VWS V14.01,2013-04-17 17:13:00,
2013-04-17 12:18:00,39.7,31.1,30.25,East,92,1.0,3.0,71,0.00,,-RA,0.00,209.00,VWS V14.01,2013-04-17 17:18:00,
2013-04-17 12:23:00,39.8,31.2,30.26,SE,145,1.0,3.0,71,0.00,,-RA,0.00,206.00,VWS V14.01,2013-04-17 17:23:00,
2013-04-17 12:28:00,39.8,31.2,30.25,ENE,63,1.0,4.0,71,0.00,,-RA,0.00,207.00,VWS V14.01,2013-04-17 17:28:00,
2013-04-17 12:33:00,39.8,31.2,30.25,ENE,62,1.0,6.0,71,0.00,,-RA,0.00,195.00,VWS V14.01,2013-04-17 17:33:00,
2013-04-17 12:38:00,39.7,31.1,30.25,ESE,104,1.0,6.0,71,0.00,,-RA,0.00,167.00,VWS V14.01,2013-04-17 17:38:00,
2013-04-17 12:43:00,39.7,31.1,30.25,East,92,1.0,7.0,71,0.00,,-RA,0.00,193.00,VWS V14.01,2013-04-17 17:43:00,
2013-04-17 12:48:00,39.7,31.1,30.25,ESE,103,3.0,7.0,71,0.00,,-RA,0.00,178.00,VWS V14.01,2013-04-17 17:48:00,
2013-04-17 12:53:00,39.6,31.0,30.25,East,88,1.0,7.0,71,0.00,,-RA,0.00,174.00,VWS V14.01,2013-04-17 17:53:00,
2013-04-17 12:58:00,39.6,31.0,30.25,ESE,104,4.0,7.0,71,0.00,,-RA,0.00,209.00,VWS V14.01,2013-04-17 17:58:00,
2013-04-17 13:03:00,39.7,31.4,30.24,ESE,105,2.0,6.0,72,0.00,,-RA,0.00,237.00,VWS V14.01,2013-04-17 18:03:00,
2013-04-17 13:08:00,39.8,31.5,30.24,ENE,70,2.0,6.0,72,0.00,,-RA,0.00,295.00,VWS V14.01,2013-04-17 18:08:00,
2013-04-17 13:13:00,40.0,31.4,30.23,NE,52,2.0,8.0,71,0.00,,-RA,0.00,336.00,VWS V14.01,2013-04-17 18:13:00,
2013-04-17 13:18:00,40.1,31.5,30.22,East,84,2.0,8.0,71,0.00,,-RA,0.00,278.00,VWS V14.01,2013-04-17 18:18:00,
2013-04-17 13:23:00,40.4,31.4,30.21,ENE,65,1.0,8.0,70,0.00,,-RA,0.00,304.00,VWS V14.01,2013-04-17 18:23:00,
2013-04-17 13:28:00,40.4,31.4,30.20,ENE,67,3.0,8.0,70,0.00,,-RA,0.00,334.00,VWS V14.01,2013-04-17 18:28:00,
2013-04-17 13:33:00,40.5,31.9,30.20,ENE,75,4.0,5.0,71,0.00,,-RA,0.00,327.00,VWS V14.01,2013-04-17 18:33:00,
2013-04-17 13:38:00,40.5,31.5,30.19,ENE,65,3.0,10.0,70,0.00,,-RA,0.00,309.00,VWS V14.01,2013-04-17 18:38:00,
2013-04-17 13:43:00,40.6,32.0,30.18,East,100,2.0,10.0,71,0.00,,-RA,0.00,304.00,VWS V14.01,2013-04-17 18:43:00,
2013-04-17 13:48:00,40.8,31.8,30.17,ENE,71,2.0,10.0,70,0.00,,-RA,0.00,288.00,VWS V14.01,2013-04-17 18:48:00,
2013-04-17 13:53:00,40.8,31.4,30.15,ENE,66,2.0,10.0,69,0.00,,-RA,0.00,281.00,VWS V14.01,2013-04-17 18:53:00,
2013-04-17 13:58:00,41.0,31.6,30.15,ENE,61,2.0,10.0,69,0.00,,-RA,0.00,271.00,VWS V14.01,2013-04-17 18:58:00,
2013-04-17 14:04:00,41.2,31.8,30.13,ENE,63,2.0,5.0,69,0.00,,-RA,0.00,265.00,VWS V14.01,2013-04-17 19:04:00,
2013-04-17 14:09:00,41.2,31.5,30.12,ENE,78,4.0,7.0,68,0.00,,-RA,0.00,234.00,VWS V14.01,2013-04-17 19:09:00,
2013-04-17 14:14:00,41.2,31.5,30.10,ENE,73,2.0,8.0,68,0.00,,-RA,0.00,220.00,VWS V14.01,2013-04-17 19:14:00,
2013-04-17 14:19:00,41.0,31.6,30.09,ENE,58,2.0,8.0,69,0.00,,-RA,0.00,206.00,VWS V14.01,2013-04-17 19:19:00,
2013-04-17 14:24:00,40.9,31.5,30.07,ENE,68,3.0,8.0,69,0.00,,-RA,0.00,195.00,VWS V14.01,2013-04-17 19:24:00,
2013-04-17 14:29:00,40.9,31.5,30.06,ENE,69,5.0,10.0,69,0.00,,-RA,0.00,232.00,VWS V14.01,2013-04-17 19:29:00,
2013-04-17 14:34:00,41.0,31.6,30.07,NE,36,5.0,8.0,69,0.00,,-RA,0.00,330.00,VWS V14.01,2013-04-17 19:34:00,
2013-04-17 14:39:00,41.2,31.8,30.09,NE,53,2.0,8.0,69,0.00,,-RA,0.00,353.00,VWS V14.01,2013-04-17 19:39:00,
2013-04-17 14:44:00,41.6,31.8,30.11,ENE,69,4.0,8.0,68,0.00,,-RA,0.00,297.00,VWS V14.01,2013-04-17 19:44:00,
2013-04-17 14:49:00,41.9,32.1,30.10,ENE,74,2.0,8.0,68,0.00,,-RA,0.00,329.00,VWS V14.01,2013-04-17 19:49:00,
2013-04-17 14:54:00,42.2,32.4,30.11,ENE,65,2.0,8.0,68,0.00,,-RA,0.00,281.00,VWS V14.01,2013-04-17 19:54:00,
2013-04-17 14:59:00,42.4,31.9,30.11,ENE,71,2.0,8.0,66,0.00,,-RA,0.00,218.00,VWS V14.01,2013-04-17 19:59:00,
2013-04-17 15:04:00,42.4,31.9,30.11,ENE,67,1.0,3.0,66,0.00,,-RA,0.00,251.00,VWS V14.01,2013-04-17 20:04:00,
2013-04-17 15:09:00,42.7,32.2,30.11,ENE,78,2.0,4.0,66,0.00,,-RA,0.00,250.00,VWS V14.01,2013-04-17 20:09:00,
2013-04-17 15:14:00,42.7,31.4,30.09,East,79,5.0,7.0,64,0.00,,-RA,0.00,288.00,VWS V14.01,2013-04-17 20:14:00,
2013-04-17 15:19:00,42.9,32.0,30.08,ESE,105,1.0,7.0,65,0.00,,-RA,0.00,288.00,VWS V14.01,2013-04-17 20:19:00,
2013-04-17 15:24:00,43.0,31.7,30.08,ENE,67,2.0,7.0,64,0.00,,-RA,0.00,257.00,VWS V14.01,2013-04-17 20:24:00,
2013-04-17 15:29:00,42.9,31.6,30.08,East,91,2.0,7.0,64,0.00,,-RA,0.00,218.00,VWS V14.01,2013-04-17 20:29:00,
2013-04-17 15:34:00,42.8,31.1,30.08,East,98,3.0,8.0,63,0.00,,-RA,0.00,179.00,VWS V14.01,2013-04-17 20:34:00,
2013-04-17 15:39:00,42.6,31.3,30.08,ENE,71,2.0,8.0,64,0.00,,-RA,0.00,181.00,VWS V14.01,2013-04-17 20:39:00,
2013-04-17 15:44:00,42.5,31.2,30.08,ENE,71,2.0,8.0,64,0.00,,-RA,0.00,192.00,VWS V14.01,2013-04-17 20:44:00,
2013-04-17 15:49:00,42.5,31.2,30.08,ENE,59,0.0,8.0,64,0.00,,-RA,0.00,142.00,VWS V14.01,2013-04-17 20:49:00,
2013-04-17 15:54:00,42.5,31.2,30.09,East,80,2.0,8.0,64,0.00,,-RA,0.00,123.00,VWS V14.01,2013-04-17 20:54:00,
2013-04-17 15:59:00,42.4,31.5,30.09,ENE,64,0.0,8.0,65,0.00,,-RA,0.00,123.00,VWS V14.01,2013-04-17 20:59:00,
2013-04-17 16:04:00,42.4,31.5,30.09,East,80,2.0,8.0,65,0.00,,OVC048,0.00,116.00,VWS V14.01,2013-04-17 21:04:00,
2013-04-17 16:09:00,42.3,31.4,30.09,East,100,2.0,8.0,65,0.00,,OVC048,0.00,104.00,VWS V14.01,2013-04-17 21:09:00,
2013-04-17 16:14:00,42.3,31.4,30.09,ESE,105,1.0,8.0,65,0.00,,OVC048,0.00,102.00,VWS V14.01,2013-04-17 21:14:00,
2013-04-17 16:19:00,42.3,31.4,30.09,ENE,76,1.0,8.0,65,0.00,,OVC048,0.00,102.00,VWS V14.01,2013-04-17 21:19:00,
2013-04-17 16:24:00,42.3,31.8,30.09,NE,37,2.0,8.0,66,0.00,,OVC048,0.00,97.00,VWS V14.01,2013-04-17 21:24:00,
2013-04-17 16:29:00,42.2,31.7,30.09,East,81,0.0,8.0,66,0.00,,OVC048,0.00,88.00,VWS V14.01,2013-04-17 21:29:00,
2013-04-17 16:34:00,42.2,31.7,30.09,East,91,1.0,7.0,66,0.00,,OVC048,0.00,77.00,VWS V14.01,2013-04-17 21:34:00,
2013-04-17 16:39:00,42.0,31.5,30.08,ENE,68,4.0,7.0,66,0.00,,OVC048,0.00,70.00,VWS V14.01,2013-04-17 21:39:00,
2013-04-17 16:44:00,41.9,31.8,30.08,ENE,72,1.0,8.0,67,0.00,,OVC048,0.00,65.00,VWS V14.01,2013-04-17 21:44:00,
2013-04-17 16:49:00,41.8,31.7,30.08,ENE,75,2.0,8.0,67,0.00,,OVC048,0.00,67.00,VWS V14.01,2013-04-17 21:49:00,
2013-04-17 16:54:00,41.6,31.5,30.07,ENE,78,1.0,8.0,67,0.00,,OVC048,0.00,74.00,VWS V14.01,2013-04-17 21:54:00,
2013-04-17 16:59:00,41.6,31.5,30.06,ENE,63,1.0,8.0,67,0.00,,OVC048,0.00,79.00,VWS V14.01,2013-04-17 21:59:00,
2013-04-17 17:04:00,41.5,31.4,30.06,NE,52,3.0,5.0,67,0.00,,OVC046,0.00,84.00,VWS V14.01,2013-04-17 22:04:00,
2013-04-17 17:09:00,41.5,31.4,30.06,ENE,58,2.0,5.0,67,0.00,,OVC046,0.00,81.00,VWS V14.01,2013-04-17 22:09:00,
2013-04-17 17:14:00,41.5,31.4,30.06,NE,53,3.0,6.0,67,0.00,,OVC046,0.00,86.00,VWS V14.01,2013-04-17 22:14:00,
2013-04-17 17:19:00,41.3,31.2,30.04,ENE,72,2.0,6.0,67,0.00,,OVC046,0.00,97.00,VWS V14.01,2013-04-17 22:19:00,
2013-04-17 17:24:00,41.3,31.2,30.04,ENE,74,3.0,6.0,67,0.00,,OVC046,0.00,97.00,VWS V14.01,2013-04-17 22:24:00,
2013-04-17 17:29:00,41.4,31.3,30.04,ENE,59,3.0,6.0,67,0.00,,OVC046,0.00,95.00,VWS V14.01,2013-04-17 22:29:00,
2013-04-17 17:34:00,41.3,31.5,30.04,NE,49,2.0,4.0,68,0.00,,OVC046,0.00,65.00,VWS V14.01,2013-04-17 22:34:00,
2013-04-17 17:39:00,41.3,31.5,30.04,ENE,61,3.0,5.0,68,0.00,,OVC046,0.00,65.00,VWS V14.01,2013-04-17 22:39:00,
2013-04-17 17:44:00,41.3,31.5,30.04,ENE,67,1.0,5.0,68,0.00,,OVC046,0.00,62.00,VWS V14.01,2013-04-17 22:44:00,
2013-04-17 17:49:00,41.3,31.5,30.04,ENE,63,0.0,5.0,68,0.00,,OVC046,0.00,46.00,VWS V14.01,2013-04-17 22:49:00,
2013-04-17 17:54:00,41.3,31.2,30.05,ENE,70,1.0,5.0,67,0.00,,OVC046,0.00,33.00,VWS V14.01,2013-04-17 22:54:00,
2013-04-17 17:59:00,41.3,31.5,30.03,ENE,70,1.0,5.0,68,0.00,,OVC046,0.00,40.00,VWS V14.01,2013-04-17 22:59:00,
2013-04-17 18:04:00,41.3,31.5,30.03,ENE,72,1.0,5.0,68,0.00,,OVC036,0.00,30.00,VWS V14.01,2013-04-17 23:04:00,
2013-04-17 18:09:00,41.1,31.4,30.02,ENE,74,2.0,5.0,68,0.00,,OVC036,0.00,25.00,VWS V14.01,2013-04-17 23:09:00,
2013-04-17 18:14:00,41.1,31.0,30.02,ENE,72,1.0,6.0,67,0.00,,OVC036,0.00,21.00,VWS V14.01,2013-04-17 23:14:00,
2013-04-17 18:19:00,41.1,31.0,30.02,ENE,68,1.0,6.0,67,0.00,,OVC036,0.00,18.00,VWS V14.01,2013-04-17 23:19:00,
2013-04-17 18:24:00,41.0,31.3,30.01,East,85,2.0,6.0,68,0.00,,OVC036,0.00,18.00,VWS V14.01,2013-04-17 23:24:00,
2013-04-17 18:29:00,40.9,31.2,30.01,East,87,3.0,6.0,68,0.00,,OVC036,0.00,16.00,VWS V14.01,2013-04-17 23:29:00,
2013-04-17 18:34:00,40.8,31.1,30.00,ENE,67,2.0,6.0,68,0.00,,OVC036,0.00,16.00,VWS V14.01,2013-04-17 23:34:00,
2013-04-17 18:39:00,40.7,31.0,30.00,ENE,62,1.0,6.0,68,0.00,,OVC036,0.00,14.00,VWS V14.01,2013-04-17 23:39:00,
2013-04-17 18:44:00,40.6,30.9,30.00,ENE,63,0.0,6.0,68,0.00,,OVC036,0.00,12.00,VWS V14.01,2013-04-17 23:44:00,
2013-04-17 18:49:00,40.6,31.2,30.00,ENE,66,1.0,6.0,69,0.00,,OVC036,0.00,9.00,VWS V14.01,2013-04-17 23:49:00,
2013-04-17 18:54:00,40.5,30.8,30.00,ENE,59,1.0,6.0,68,0.00,,OVC036,0.00,7.00,VWS V14.01,2013-04-17 23:54:00,
2013-04-17 18:59:00,40.3,30.6,30.01,NE,53,3.0,6.0,68,0.00,,OVC036,0.00,7.00,VWS V14.01,2013-04-17 23:59:00,
2013-04-17 19:04:00,40.3,31.0,30.01,ENE,58,3.0,3.0,69,0.00,,OVC030,0.00,5.00,VWS V14.01,2013-04-18 00:04:00,
2013-04-17 19:09:00,40.1,31.1,30.00,NE,44,2.0,5.0,70,0.00,,OVC030,0.00,5.00,VWS V14.01,2013-04-18 00:09:00,
2013-04-17 19:14:00,39.9,31.3,30.00,NE,42,3.0,5.0,71,0.00,,OVC030,0.00,5.00,VWS V14.01,2013-04-18 00:14:00,
2013-04-17 19:19:00,39.7,31.8,30.00,NE,47,3.0,5.0,73,0.00,,OVC030,0.00,0.00,VWS V14.01,2013-04-18 00:19:00,
2013-04-17 19:24:00,39.5,31.9,30.00,NE,47,1.0,5.0,74,0.00,,OVC030,0.00,0.00,VWS V14.01,2013-04-18 00:24:00,
2013-04-17 19:29:00,39.3,32.0,30.00,NE,35,2.0,2.0,75,0.00,,OVC030,0.00,0.00,VWS V14.01,2013-04-18 00:29:00,
2013-04-17 19:34:00,39.1,31.9,29.98,NE,35,2.0,3.0,75,0.00,,OVC030,0.00,0.00,VWS V14.01,2013-04-18 00:34:00,
2013-04-17 19:39:00,39.0,31.8,29.98,NE,47,2.0,4.0,75,0.00,,OVC030,0.00,0.00,VWS V14.01,2013-04-18 00:39:00,
2013-04-17 19:44:00,38.8,31.6,29.97,NE,47,1.0,4.0,75,0.00,,OVC030,0.00,0.00,VWS V14.01,2013-04-18 00:44:00,
2013-04-17 19:49:00,38.8,31.6,29.97,NE,47,1.0,4.0,75,0.00,,OVC030,0.00,0.00,VWS V14.01,2013-04-18 00:49:00,
2013-04-17 19:54:00,38.7,31.1,29.98,NNE,15,2.0,4.0,74,0.00,,OVC030,0.00,0.00,VWS V14.01,2013-04-18 00:54:00,
2013-04-17 19:59:00,38.8,30.9,29.97,NE,56,2.0,2.0,73,0.00,,OVC028,0.00,0.00,VWS V14.01,2013-04-18 00:59:00,
2013-04-17 20:04:00,38.9,30.7,29.97,NE,56,1.0,3.0,72,0.00,,OVC028,0.00,0.00,VWS V14.01,2013-04-18 01:04:00,
2013-04-17 20:09:00,39.1,30.5,29.97,NE,56,1.0,3.0,71,0.00,,OVC028,0.00,0.00,VWS V14.01,2013-04-18 01:09:00,
2013-04-17 20:15:00,39.2,30.2,29.98,NE,56,1.0,3.0,70,0.00,,OVC028,0.00,0.00,VWS V14.01,2013-04-18 01:15:00,
2013-04-17 20:20:00,39.3,30.4,29.98,NE,48,3.0,3.0,70,0.00,,OVC028,0.00,0.00,VWS V14.01,2013-04-18 01:20:00,
2013-04-17 20:25:00,39.4,30.4,29.98,NE,49,2.0,3.0,70,0.00,,OVC028,0.00,0.00,VWS V14.01,2013-04-18 01:25:00,
2013-04-17 20:30:00,39.5,30.5,29.99,ENE,71,1.0,1.0,70,0.00,,OVC028,0.00,0.00,VWS V14.01,2013-04-18 01:30:00,
2013-04-17 20:35:00,39.5,30.5,29.99,ENE,74,2.0,3.0,70,0.00,,OVC028,0.00,0.00,VWS V14.01,2013-04-18 01:35:00,
2013-04-17 20:40:00,39.5,30.5,29.99,ENE,63,1.0,3.0,70,0.00,,OVC028,0.00,0.00,VWS V14.01,2013-04-18 01:40:00,
2013-04-17 20:45:00,39.6,30.6,29.99,ENE,57,3.0,5.0,70,0.00,,OVC028,0.00,0.00,VWS V14.01,2013-04-18 01:45:00,
2013-04-17 20:50:00,39.7,31.1,29.99,NNE,30,3.0,5.0,71,0.00,,OVC028,0.00,0.00,VWS V14.01,2013-04-18 01:50:00,
2013-04-17 20:55:00,39.6,31.0,30.00,NE,48,0.0,5.0,71,0.00,,OVC028,0.00,0.00,VWS V14.01,2013-04-18 01:55:00,
2013-04-17 21:00:00,39.5,30.9,29.99,ENE,76,2.0,3.0,71,0.00,,OVC026,0.00,0.00,VWS V14.01,2013-04-18 02:00:00,
2013-04-17 21:05:00,39.5,30.9,29.99,NE,47,1.0,3.0,71,0.00,,OVC026,0.00,0.00,VWS V14.01,2013-04-18 02:05:00,
2013-04-17 21:10:00,39.4,30.8,29.98,ENE,68,4.0,5.0,71,0.00,,OVC026,0.00,0.00,VWS V14.01,2013-04-18 02:10:00,
2013-04-17 21:15:00,39.5,31.2,29.98,ENE,71,3.0,5.0,72,0.00,,OVC026,0.00,0.00,VWS V14.01,2013-04-18 02:15:00,
2013-04-17 21:20:00,39.5,31.2,29.98,NE,55,0.0,5.0,72,0.00,,OVC026,0.00,0.00,VWS V14.01,2013-04-18 02:20:00,
2013-04-17 21:25:00,39.5,31.2,29.99,ENE,57,0.0,5.0,72,0.00,,OVC026,0.00,0.00,VWS V14.01,2013-04-18 02:25:00,
2013-04-17 21:30:00,39.6,31.3,29.99,ENE,63,2.0,2.0,72,0.00,,OVC026,0.00,0.00,VWS V14.01,2013-04-18 02:30:00,
2013-04-17 21:35:00,39.7,31.8,29.99,ENE,72,4.0,5.0,73,0.00,,OVC026,0.00,0.00,VWS V14.01,2013-04-18 02:35:00,
2013-04-17 21:40:00,39.5,32.9,30.00,ENE,78,4.0,5.0,77,0.00,,OVC026,0.00,0.00,VWS V14.01,2013-04-18 02:40:00,
2013-04-17 21:45:00,39.0,33.4,29.99,ENE,69,2.0,7.0,80,0.01,,OVC026,0.01,0.00,VWS V14.01,2013-04-18 02:45:00,
2013-04-17 21:50:00,38.5,33.5,29.98,ENE,69,2.0,7.0,82,0.01,,OVC026,0.01,0.00,VWS V14.01,2013-04-18 02:50:00,
2013-04-17 21:55:00,38.0,33.6,29.97,ENE,71,4.0,7.0,84,0.02,,OVC026,0.02,0.00,VWS V14.01,2013-04-18 02:55:00,
2013-04-17 22:00:00,37.7,33.6,29.97,ENE,69,1.0,3.0,85,0.02,,-RA,0.02,0.00,VWS V14.01,2013-04-18 03:00:00,
2013-04-17 22:05:00,37.4,33.6,29.97,ENE,70,1.0,3.0,86,0.03,,-RA,0.03,0.00,VWS V14.01,2013-04-18 03:05:00,
2013-04-17 22:10:00,37.1,33.6,29.97,ENE,70,0.0,3.0,87,0.03,,-RA,0.03,0.00,VWS V14.01,2013-04-18 03:10:00,
2013-04-17 22:15:00,37.0,33.8,29.97,ENE,70,0.0,3.0,88,0.04,,-RA,0.04,0.00,VWS V14.01,2013-04-18 03:15:00,
2013-04-17 22:20:00,36.9,33.7,29.97,ENE,70,2.0,3.0,88,0.04,,-RA,0.04,0.00,VWS V14.01,2013-04-18 03:20:00,
2013-04-17 22:25:00,36.7,33.8,29.97,ENE,70,0.0,3.0,89,0.04,,-RA,0.04,0.00,VWS V14.01,2013-04-18 03:25:00,
2013-04-17 22:30:00,36.6,33.7,29.96,ENE,70,0.0,1.0,89,0.05,,-RA,0.05,0.00,VWS V14.01,2013-04-18 03:30:00,
2013-04-17 22:35:00,36.5,33.6,29.96,ENE,70,0.0,1.0,89,0.06,,-RA,0.06,0.00,VWS V14.01,2013-04-18 03:35:00,
2013-04-17 22:40:00,36.4,33.5,29.96,ENE,70,1.0,1.0,89,0.06,,-RA,0.06,0.00,VWS V14.01,2013-04-18 03:40:00,
2013-04-17 22:45:00,36.3,33.4,29.96,ENE,70,0.0,1.0,89,0.07,,-RA,0.07,0.00,VWS V14.01,2013-04-18 03:45:00,
2013-04-17 22:50:00,36.3,33.4,29.96,ENE,70,0.0,1.0,89,0.08,,-RA,0.08,0.00,VWS V14.01,2013-04-18 03:50:00,
2013-04-17 22:55:00,36.2,33.6,29.96,ENE,70,0.0,1.0,90,0.08,,-RA,0.08,0.00,VWS V14.01,2013-04-18 03:55:00,
2013-04-17 23:00:00,36.2,33.6,29.95,ENE,70,0.0,0.0,90,0.06,,-RA,0.08,0.00,VWS V14.01,2013-04-18 04:00:00,
2013-04-17 23:01:00,36.2,33.6,29.95,ENE,70,0.0,0.0,90,0.06,,-RA,0.08,0.00,VWS V14.01,2013-04-18 04:01:00,
2013-04-17 23:06:00,36.2,33.6,29.95,ENE,70,0.0,1.0,90,0.07,,-RA,0.09,0.00,VWS V14.01,2013-04-18 04:06:00,
2013-04-17 23:11:00,36.1,33.5,29.95,ENE,70,0.0,1.0,90,0.07,,-RA,0.09,0.00,VWS V14.01,2013-04-18 04:11:00,
2013-04-17 23:16:00,36.1,33.5,29.95,ENE,70,0.0,1.0,90,0.07,,-RA,0.09,0.00,VWS V14.01,2013-04-18 04:16:00,
2013-04-17 23:21:00,36.1,33.5,29.94,ENE,70,0.0,1.0,90,0.07,,-RA,0.09,0.00,VWS V14.01,2013-04-18 04:21:00,
2013-04-17 23:26:00,36.1,33.5,29.92,ENE,70,2.0,3.0,90,0.07,,-RA,0.09,0.00,VWS V14.01,2013-04-18 04:26:00,
2013-04-17 23:31:00,36.1,33.5,29.90,NE,55,0.0,2.0,90,0.04,,-RA,0.09,0.00,VWS V14.01,2013-04-18 04:31:00,
2013-04-17 23:36:00,36.1,33.5,29.91,North,5,1.0,2.0,90,0.05,,-RA,0.10,0.00,VWS V14.01,2013-04-18 04:36:00,
2013-04-17 23:41:00,36.1,33.5,29.91,North,5,2.0,3.0,90,0.05,,-RA,0.10,0.00,VWS V14.01,2013-04-18 04:41:00,
2013-04-17 23:46:00,36.1,33.5,29.89,North,5,1.0,3.0,90,0.05,,-RA,0.10,0.00,VWS V14.01,2013-04-18 04:46:00,
2013-04-17 23:51:00,36.1,33.5,29.88,North,5,2.0,3.0,90,0.06,,-RA,0.11,0.00,VWS V14.01,2013-04-18 04:51:00,
2013-04-17 23:56:00,36.1,33.5,29.86,NE,42,1.0,4.0,90,0.06,,-RA,0.11,0.00,VWS V14.01,2013-04-18 04:56:00,